Temperature
22 22 22 22 22 23 23 24 25 25 25 25 25 25 24 23 21 19 19 19 19 18 18 18 18 18 18 18 18 18 18 18 18 18 18 18 18 18 18 18 18 18 18 18 18 18 18 18 18
22 22 22 23 22 23 23 24 24 25 25 25 25 25 23 22 21 19 19 19 18 18 18 18 18 18 18 18 18 18 18 18 18 18 18 18 18 18 18 18 18 18 18 18 18 18 18 18 18
22 22 23 23 24 23 23 24 24 25 25 25 25 24 23 21 20 19 19 19 18 18 18 18 18 18 17 17 18 18 18 18 18 18 18 18 18 18 18 18 18 18 18 18 18 18 18 18 18
22 23 24 24 24 25 25 25 25 25 25 25 25 23 21 21 20 19 19 19 18 18 18 18 18 18 18 17 17 17 17 18 18 18 18 18 17 17 17 17 18 18 18 18 17 18 17 17 17
22 24 24 23 24 25 26 26 26 25 25 25 24 22 20 20 20 19 19 19 19 18 18 18 18 18 18 17 17 17 17 17 17 17 17 17 17 17 17 17 17 17 17 17 17 17 17 17 17
23 24 23 23 24 25 26 26 26 25 25 24 24 22 20 20 20 20 20 19 19 18 18 18 18 18 18 17 17 17 17 17 17 17 17 17 17 17 17 17 17 17 17 17 17 17 17 17 17
24 24 24 24 23 24 25 25 25 25 25 24 24 22 20 20 20 20 19 19 19 19 18 18 18 18 18 18 17 17 17 17 17 17 17 17 17 17 17 17 17 17 17 17 17 17 17 17 17
24 24 24 24 24 24 25 25 25 25 24 24 24 22 21 20 20 20 20 19 19 19 18 18 18 18 18 18 17 17 17 17 17 17 17 17 17 17 17 17 17 17 17 17 17 17 17 17 16
25 23 23 24 24 24 25 25 25 24 24 24 23 22 21 20 20 20 20 19 19 19 19 19 18 18 18 18 17 17 17 17 17 17 17 16 16 16 17 17 17 17 17 16 16 16 16 16 16
25 23 24 25 25 25 25 25 25 25 24 23 22 22 21 20 20 20 20 20 19 19 19 19 19 18 18 18 17 17 17 17 17 17 17 16 16 16 16 16 17 17 16 16 16 16 16 16 16
25 24 25 26 25 25 25 25 25 25 23 23 23 22 21 21 21 20 20 20 20 19 19 19 19 19 18 18 18 17 17 17 17 17 17 16 16 16 16 16 16 16 16 16 16 16 16 16 16
26 26 26 25 25 25 25 25 25 24 24 23 23 22 21 21 21 21 20 20 20 20 20 19 19 19 18 18 18 18 17 17 17 17 17 17 16 16 16 16 16 16 16 16 16 16 16 16 16
25 25 25 25 25 25 25 25 24 24 23 23 23 22 22 21 21 21 21 20 20 20 19 19 19 19 19 18 18 18 18 17 17 17 17 17 17 16 16 16 16 16 16 16 16 16 16 16 16
25 25 25 25 25 25 25 24 24 24 23 23 23 22 22 22 21 21 21 20 20 20 19 19 19 19 19 19 18 18 18 17 17 17 17 17 17 17 16 16 16 16 16 16 16 16 16 15 15
25 25 25 25 25 25 25 24 24 23 23 23 23 23 22 22 21 21 21 20 20 20 19 19 19 19 19 19 18 18 18 17 17 17 17 17 17 17 16 16 16 16 16 15 15 15 15 15 15
25 25 24 25 25 25 24 22 24 23 23 23 23 23 22 22 21 21 21 20 20 20 19 19 19 19 19 18 18 18 18 17 17 17 17 17 17 17 16 16 16 16 15 15 15 15 15 15 15
24 24 24 24 25 25 24 23 23 23 23 23 23 23 22 22 21 21 21 20 20 20 20 19 19 19 18 18 18 18 18 17 17 17 17 17 17 16 16 16 16 16 15 15 15 15 15 15 15
24 24 24 24 25 25 24 23 24 24 23 24 23 23 22 22 21 21 21 20 20 20 20 19 19 19 18 18 18 18 17 17 17 17 17 17 16 16 16 16 16 16 15 15 15 15 15 15 15
25 25 24 25 25 25 24 24 24 24 24 24 23 23 22 22 22 21 20 20 20 20 20 19 19 19 18 18 18 17 17 17 17 17 17 16 16 16 16 16 16 15 15 15 15 15 15 15 14
25 24 24 25 26 25 24 24 25 24 24 24 23 23 22 22 21 21 21 20 20 20 19 19 19 19 18 18 18 17 17 17 17 17 16 16 16 16 16 16 15 15 15 15 15 15 15 15 14
25 24 24 24 24 25 24 23 24 25 24 24 24 23 23 22 21 21 20 20 20 19 19 19 19 19 18 18 17 17 17 17 16 16 16 16 16 16 16 15 15 15 15 15 15 15 15 14 14
24 25 25 24 23 23 24 22 23 24 24 24 23 23 23 22 21 20 20 19 19 19 19 19 19 18 18 18 17 17 17 17 16 16 16 16 16 16 15 15 15 15 15 15 15 15 14 14 14
24 25 24 24 23 23 24 23 23 24 23 23 23 23 22 22 21 20 19 19 19 19 19 18 18 18 18 17 17 17 17 17 16 16 16 16 16 15 15 15 15 15 15 15 14 14 14 14 14
25 24 24 24 23 22 23 23 22 24 24 24 23 23 22 21 20 20 19 19 19 18 18 18 18 18 18 17 17 17 17 17 16 16 16 16 16 15 15 15 15 15 15 14 14 14 14 14 14
24 23 22 22 21 22 25 24 23 24 25 24 23 23 22 21 20 19 19 18 18 18 18 18 18 18 17 17 17 17 17 16 16 16 16 16 16 15 15 15 15 15 15 14 14 14 14 14 14
24 23 21 21 21 22 24 23 23 25 24 24 23 22 21 21 20 19 18 18 18 18 17 17 17 17 17 17 17 17 16 16 16 16 16 16 15 15 15 15 15 15 15 14 14 14 14 14 14
23 23 24 22 22 22 23 23 23 24 23 23 22 22 21 20 20 19 18 18 17 17 17 17 17 17 17 17 17 16 16 16 16 16 16 16 15 15 15 15 15 15 14 14 14 14 14 14 14
23 23 22 22 21 21 22 22 22 22 22 22 22 21 21 20 19 19 18 18 17 17 17 17 17 17 16 16 16 16 16 16 16 16 16 15 15 15 15 15 15 14 14 14 14 14 14 14 13
23 22 22 22 22 21 20 21 23 22 22 22 21 21 20 20 19 18 18 17 17 17 16 16 16 16 16 16 16 16 16 16 16 15 15 15 15 15 15 14 14 14 14 14 14 14 14 13 13
23 22 22 20 20 21 21 20 23 23 22 22 21 21 20 19 18 18 17 17 17 16 16 16 16 16 16 16 15 15 15 15 15 15 15 15 15 15 14 14 14 14 14 14 14 14 13 13 13
Wind_Speed
9 11 8 3 2 1 4 6 8 7 7 9 9 9 12 12 9 8 4 4 8 11 13 12 11 11 11 11 11 11 11 11 11 12 12 12 13 13 13 13 13 13 13 12 12 11 12 11 11
10 8 5 3 2 1 4 6 9 8 7 6 6 10 13 11 11 8 5 5 8 11 12 12 11 11 11 11 11 11 11 11 12 12 12 12 12 13 13 13 13 13 13 12 12 12 13 12 11
11 7 4 2 1 3 6 7 8 7 5 5 6 11 9 7 8 6 5 6 9 11 13 11 11 11 11 11 12 12 11 12 12 12 12 12 13 13 13 13 12 12 12 12 12 12 12 12 12
6 4 3 0 4 5 6 7 6 6 5 5 7 9 9 8 6 8 7 7 10 11 13 11 11 11 11 11 12 12 12 11 11 11 11 12 12 13 13 12 13 12 12 12 12 12 12 12 11
4 3 1 2 4 5 7 7 5 6 6 7 10 11 9 8 10 9 7 8 10 10 11 12 11 11 11 11 11 12 12 12 12 12 11 12 13 13 13 13 12 12 12 12 13 12 11 10 10
3 2 1 3 5 4 5 5 6 8 7 7 9 11 8 8 8 7 7 7 9 10 10 12 11 11 11 11 11 11 11 11 11 11 11 12 13 13 13 13 13 13 13 13 12 12 11 10 10
3 2 0 4 4 4 4 5 6 6 6 6 6 9 8 7 6 7 7 7 8 8 9 10 11 11 12 11 11 11 10 10 10 10 11 12 12 12 12 13 13 12 12 11 11 10 10 9 9
4 2 1 3 4 4 5 6 5 6 5 4 4 7 8 8 7 7 7 8 7 6 6 8 10 11 11 11 11 10 10 9 8 9 10 11 11 11 11 12 12 11 10 10 9 9 8 7 7
3 1 1 2 3 5 5 5 4 6 6 6 8 10 11 11 9 7 7 7 6 6 5 6 7 9 10 10 10 10 9 8 7 7 7 7 7 9 9 11 10 9 8 8 7 7 6 6 5
0 1 2 3 4 5 4 4 3 4 6 6 9 11 12 10 8 8 7 7 7 6 5 5 6 7 8 8 8 7 7 7 5 6 6 4 7 9 9 9 8 7 6 5 5 5 4 3 3
1 1 2 3 4 3 3 4 3 3 4 5 9 11 12 9 7 7 7 7 6 6 5 5 6 6 7 4 5 4 4 4 4 6 7 7 7 7 8 6 5 4 3 3 2 2 2 4 5
1 1 2 3 3 2 2 2 3 3 3 4 7 10 10 9 8 7 7 7 6 5 5 4 5 5 6 5 3 3 3 3 3 4 7 5 3 3 4 3 4 3 3 3 2 2 4 6 7
1 1 2 3 2 2 1 1 2 3 4 4 7 10 9 8 7 6 7 8 7 6 5 4 3 5 6 5 2 4 3 3 4 4 5 6 3 3 3 3 4 4 3 3 3 4 6 6 7
1 2 2 2 3 3 2 3 3 3 5 6 7 8 9 8 7 6 6 7 7 6 5 4 3 4 6 4 3 4 4 4 4 3 4 6 4 3 3 3 4 4 4 4 4 5 5 5 5
2 3 4 4 3 2 2 4 4 4 5 6 7 7 7 7 7 6 6 6 7 6 6 5 4 4 5 4 4 4 4 5 3 3 4 5 6 5 4 3 3 4 5 5 4 5 4 4 5
6 6 4 4 5 4 4 4 3 5 5 6 6 7 7 6 7 6 6 6 6 6 6 6 5 5 4 5 4 3 4 4 3 4 4 5 6 7 4 3 3 4 5 4 3 3 4 4 5
6 6 5 5 6 4 5 3 4 6 7 7 7 7 7 8 7 7 7 6 6 6 6 6 6 5 5 5 4 3 4 3 3 3 3 4 5 6 5 3 3 4 4 3 3 4 3 4 4
5 6 5 5 5 5 6 5 5 7 7 7 7 6 6 7 7 7 7 6 6 5 6 6 6 6 6 4 4 3 3 3 3 3 3 4 4 5 5 3 3 4 3 3 3 3 3 2 2
6 6 5 4 4 6 7 7 7 8 7 7 7 7 7 6 7 8 7 7 6 6 5 6 7 5 5 3 3 3 3 2 2 3 4 4 3 4 5 3 3 3 3 2 3 3 3 2 2
8 7 6 4 3 5 6 8 7 8 8 6 6 6 7 7 7 7 8 7 6 6 5 6 7 6 6 4 3 4 4 3 3 2 3 3 3 3 4 3 3 3 2 3 3 3 2 1 1
8 6 5 5 5 7 7 8 8 8 8 7 6 6 7 6 7 7 6 6 6 6 6 6 6 7 7 5 3 3 3 2 2 2 2 2 3 3 3 3 3 2 2 2 2 2 2 1 1
7 5 6 6 7 5 6 5 6 7 9 9 7 5 6 6 6 6 5 6 6 6 5 5 6 6 6 6 4 5 4 3 3 3 2 2 3 3 3 3 3 2 2 2 2 2 2 2 0
6 5 7 9 9 9 9 7 5 6 8 9 8 6 6 7 7 6 5 5 5 5 4 4 5 5 5 6 5 5 4 3 2 3 3 3 2 3 3 3 2 2 2 2 2 1 1 1 1
6 8 9 9 7 9 10 8 3 3 6 8 8 7 6 7 7 7 7 5 4 5 5 3 4 5 5 5 6 5 5 4 4 3 3 3 2 2 3 3 2 2 2 2 2 2 1 1 1
7 6 4 5 6 7 7 6 3 3 5 5 7 7 7 6 6 6 6 6 5 6 5 4 4 5 5 5 5 5 5 5 4 3 3 3 3 2 4 3 2 2 2 3 2 2 2 2 1
7 8 5 4 4 4 4 2 2 6 7 6 6 6 7 6 6 6 6 5 5 6 6 5 4 4 5 5 4 5 5 3 3 3 2 2 2 3 4 4 3 3 2 3 2 2 2 2 2
7 7 7 8 10 8 4 3 3 6 8 7 6 6 6 6 6 6 6 5 5 5 5 6 5 4 4 4 4 4 4 4 3 3 2 2 1 1 3 3 3 3 3 2 3 2 2 1 2
7 7 5 5 5 6 4 3 2 6 7 7 6 5 5 6 6 5 5 5 5 5 4 4 4 4 3 3 3 3 4 4 3 3 2 2 2 2 1 3 3 3 3 2 2 1 1 1 1
7 7 6 6 6 5 4 1 2 3 5 5 5 4 5 5 5 5 4 4 5 5 5 4 3 3 2 3 3 3 3 3 4 3 3 2 2 2 2 2 2 3 3 3 2 2 1 1 2
7 6 5 5 6 7 6 2 2 3 4 4 4 4 4 5 4 4 4 4 4 5 5 4 3 3 3 2 2 2 2 3 3 3 3 3 2 2 3 2 2 1 1 2 2 2 2 2 2
Wind_Direction
262 251 247 251 258 226 61 66 64 56 53 48 41 52 64 52 53 88 116 85 93 100 102 89 76 71 68 67 65 64 70 71 71 70 68 64 62 61 63 66 68 70 72 71 66 67 69 71 71
274 266 264 243 250 82 79 79 72 61 63 63 56 62 71 64 75 98 109 87 94 94 93 89 84 77 74 73 70 69 72 74 74 72 69 67 65 63 64 66 68 72 73 72 69 70 70 69 68
266 267 264 258 5 64 86 86 86 81 70 74 74 64 60 68 80 99 120 119 101 93 93 92 91 86 81 77 74 74 75 76 77 75 72 72 71 70 68 68 71 75 74 72 70 70 69 68 64
266 257 248 286 55 64 88 99 100 100 83 74 82 78 72 61 86 114 128 120 102 99 101 100 98 93 87 82 78 77 77 78 78 78 77 76 76 74 72 70 73 76 76 74 72 71 68 66 62
246 258 247 96 73 63 73 86 95 83 77 71 80 89 87 79 97 117 124 111 105 105 108 109 106 101 94 89 84 82 80 79 79 81 80 79 79 77 75 73 77 76 74 73 72 70 67 65 62
265 253 251 104 96 83 82 88 87 86 83 85 94 99 97 110 110 116 109 107 110 113 115 116 117 111 104 98 93 88 85 83 82 81 82 83 82 78 76 75 78 77 74 72 72 71 69 65 59
270 282 222 110 102 95 90 89 81 87 79 74 91 101 115 119 123 122 116 112 110 122 128 129 130 125 115 108 102 97 94 93 91 88 88 90 87 85 83 79 78 79 79 79 77 76 73 68 61
281 319 17 98 115 105 93 91 83 84 86 77 84 111 127 135 137 128 126 121 120 124 130 135 138 133 129 122 117 115 111 108 106 103 102 102 96 93 92 86 82 83 84 86 86 84 79 73 65
286 328 36 65 105 109 108 105 95 94 97 86 74 97 124 138 141 137 133 127 125 120 126 128 128 128 127 127 128 135 131 129 129 126 125 122 106 97 93 93 92 90 93 97 99 95 85 81 75
207 3 70 72 76 101 120 118 118 119 108 106 103 110 126 138 145 146 141 136 132 136 136 126 124 123 123 120 135 145 139 150 155 132 128 114 94 95 96 103 101 96 99 110 113 115 110 103 86
172 120 72 82 81 102 121 120 121 123 123 129 130 134 138 147 153 150 142 133 127 125 120 123 120 113 111 113 123 123 120 136 119 105 108 101 101 107 107 112 109 103 104 103 111 134 94 75 65
191 95 87 92 93 96 91 112 107 92 91 109 126 135 144 158 159 150 136 126 117 117 118 110 113 118 117 113 112 122 105 100 96 98 102 96 93 92 98 101 103 107 76 56 58 69 66 68 65
203 128 108 114 141 138 140 132 131 136 127 130 129 140 154 158 154 149 142 132 127 120 109 111 117 115 110 101 126 106 100 97 98 91 101 103 95 95 86 87 88 77 67 57 45 49 57 58 57
182 160 154 181 189 184 192 203 195 166 161 162 156 161 165 162 162 157 145 139 137 138 138 122 125 106 107 118 123 105 101 100 95 93 98 105 103 93 89 76 80 78 64 63 62 57 59 61 67
223 207 195 197 200 196 217 226 204 177 179 177 176 172 160 159 158 159 154 148 147 153 145 133 137 117 117 116 99 101 109 106 95 85 86 92 92 84 80 86 78 79 77 66 63 62 59 65 64
232 221 210 198 200 187 215 239 180 161 189 190 184 170 161 167 165 161 156 151 151 151 147 143 147 131 121 106 100 101 98 100 98 91 74 81 91 90 78 75 76 75 69 62 59 61 59 61 57
235 232 223 211 196 203 219 232 185 177 195 195 193 177 169 173 174 161 155 157 158 160 155 149 149 138 125 121 114 102 102 101 102 97 87 79 81 92 87 76 77 81 70 65 65 59 55 65 64
249 251 241 221 192 223 237 237 200 193 201 197 182 175 178 178 174 163 160 161 161 165 159 152 147 149 137 129 121 105 99 103 93 85 84 82 72 90 99 93 87 81 77 71 71 73 66 69 68
276 271 272 252 210 231 243 243 215 192 195 199 183 181 181 183 164 159 163 164 160 161 162 154 155 153 134 128 129 125 123 122 116 104 100 95 90 83 87 79 81 76 86 92 91 83 81 67 71
268 270 274 272 231 248 256 254 234 200 195 191 191 184 174 173 165 164 165 158 159 167 176 162 157 151 143 141 145 138 134 135 122 99 102 117 115 110 110 110 105 97 94 84 84 84 73 59 74
260 266 275 286 291 267 268 263 241 201 189 183 193 188 170 170 166 159 160 157 159 169 182 177 161 154 148 145 136 130 115 111 110 117 117 110 102 96 96 93 108 124 119 114 108 109 99 93 14
264 267 275 270 267 261 244 270 246 196 186 182 183 183 159 148 142 147 147 146 163 172 178 170 157 153 147 147 144 139 138 146 150 139 137 136 117 111 102 102 97 112 108 126 131 121 122 111 52
269 284 272 264 264 269 249 250 245 187 191 181 174 167 153 148 149 148 139 144 159 162 162 162 153 148 141 146 153 153 152 158 146 139 146 149 145 134 131 119 119 132 131 130 111 96 113 137 153
267 269 263 252 255 256 242 236 242 196 176 164 162 155 146 141 142 144 139 143 148 139 139 146 149 139 139 156 160 162 166 165 158 158 165 172 161 157 152 134 142 150 150 145 143 135 145 152 131
244 258 260 234 225 243 233 226 202 151 130 131 141 142 137 131 133 134 140 148 143 143 147 149 147 152 157 165 167 173 177 166 159 163 173 176 171 166 178 162 169 166 167 157 151 162 186 180 153
248 247 251 270 269 285 266 232 138 121 109 106 112 120 127 136 136 136 135 134 142 147 149 155 160 157 161 172 183 180 165 158 159 165 169 176 171 170 166 168 176 169 163 161 160 177 198 180 178
258 250 252 266 278 274 237 194 140 119 115 116 118 117 124 131 130 136 136 138 142 139 152 155 155 156 168 176 183 175 164 159 166 176 156 151 151 156 161 164 172 172 166 167 161 178 204 198 185
250 277 278 256 268 265 247 236 192 156 138 128 129 131 128 126 127 126 132 134 139 138 137 150 153 161 167 175 191 177 162 158 162 164 163 167 163 148 155 169 167 163 152 152 142 165 212 187 157
231 243 259 266 262 271 275 285 41 106 118 125 129 128 132 129 124 123 127 140 142 141 144 154 158 156 165 175 186 173 164 166 160 163 167 168 163 169 177 166 176 175 170 169 157 181 202 194 181
253 258 258 262 271 276 278 256 104 112 109 109 115 115 112 113 116 124 133 134 144 151 157 163 163 168 166 175 179 169 162 165 164 165 167 171 178 190 177 172 168 171 163 172 165 195 200 198 194
Height
1485 1485 1486 1488 1489 1491 1492 1487 1483 1485 1486 1487 1487 1487 1491 1495 1501 1512 1512 1511 1511 1509 1508 1508 1508 1508 1508 1508 1508 1508 1508 1508 1508 1508 1508 1509 1509 1509 1509 1509 1509 1509 1510 1511 1511 1512 1513 1513 1513
1486 1487 1488 1488 1490 1498 1496 1487 1488 1488 1489 1489 1490 1491 1494 1500 1504 1508 1510 1511 1511 1511 1510 1509 1510 1509 1509 1509 1509 1510 1510 1509 1509 1509 1510 1510 1510 1510 1510 1510 1510 1511 1511 1512 1513 1513 1514 1514 1514
1486 1487 1489 1486 1489 1495 1495 1488 1488 1489 1490 1490 1491 1494 1499 1504 1507 1509 1511 1512 1512 1511 1511 1511 1511 1511 1511 1511 1511 1511 1511 1511 1511 1511 1511 1511 1511 1511 1511 1512 1512 1512 1513 1513 1514 1514 1515 1515 1515
1488 1489 1487 1488 1492 1487 1486 1487 1487 1489 1490 1491 1492 1498 1504 1507 1508 1510 1511 1512 1513 1512 1512 1512 1512 1512 1512 1512 1512 1512 1512 1512 1512 1512 1512 1512 1512 1512 1513 1513 1513 1513 1514 1515 1515 1515 1516 1516 1516
1489 1488 1489 1492 1491 1486 1485 1487 1488 1490 1491 1493 1495 1501 1506 1509 1510 1511 1512 1513 1513 1513 1513 1513 1513 1513 1513 1514 1514 1514 1514 1514 1514 1514 1514 1514 1514 1514 1514 1514 1514 1515 1515 1516 1516 1517 1517 1517 1517
1489 1486 1493 1497 1493 1488 1487 1488 1489 1492 1494 1495 1497 1502 1508 1510 1511 1512 1513 1514 1514 1514 1514 1514 1515 1515 1515 1515 1515 1515 1516 1515 1515 1515 1515 1515 1515 1515 1515 1515 1516 1516 1517 1517 1517 1518 1518 1518 1518
1489 1488 1492 1493 1494 1492 1489 1490 1491 1493 1495 1496 1498 1503 1508 1511 1512 1513 1514 1515 1515 1516 1515 1515 1516 1516 1516 1517 1517 1517 1517 1517 1517 1517 1517 1517 1517 1517 1517 1517 1518 1518 1518 1518 1519 1519 1519 1520 1520
1488 1488 1490 1491 1494 1494 1491 1491 1493 1495 1497 1498 1499 1502 1508 1511 1512 1514 1515 1515 1516 1517 1517 1517 1517 1517 1518 1518 1519 1519 1519 1519 1519 1519 1519 1519 1519 1519 1519 1519 1519 1519 1519 1520 1520 1520 1521 1521 1521
1488 1492 1496 1492 1492 1492 1491 1492 1494 1496 1498 1499 1501 1503 1507 1510 1512 1514 1515 1516 1517 1518 1519 1519 1519 1520 1520 1520 1521 1521 1521 1521 1521 1521 1521 1521 1521 1521 1521 1521 1521 1521 1521 1521 1522 1522 1522 1523 1523
1488 1495 1492 1488 1488 1490 1491 1493 1494 1496 1498 1501 1503 1505 1508 1510 1512 1514 1515 1517 1518 1519 1520 1520 1521 1521 1522 1522 1522 1522 1523 1523 1523 1523 1523 1523 1523 1523 1523 1523 1523 1523 1523 1523 1523 1524 1524 1524 1525
1487 1489 1488 1488 1489 1490 1491 1493 1495 1496 1499 1500 1503 1505 1508 1510 1512 1514 1515 1516 1518 1519 1520 1521 1522 1522 1523 1523 1524 1524 1524 1525 1525 1525 1525 1525 1525 1525 1525 1524 1524 1524 1524 1525 1525 1525 1525 1526 1526
1487 1487 1488 1489 1491 1492 1492 1494 1495 1497 1500 1501 1502 1505 1507 1510 1512 1513 1515 1516 1518 1519 1520 1522 1522 1523 1524 1524 1525 1525 1526 1526 1526 1526 1526 1526 1527 1526 1526 1526 1526 1526 1526 1526 1527 1527 1527 1528 1528
1487 1488 1489 1490 1491 1492 1493 1494 1496 1498 1499 1501 1503 1505 1507 1509 1511 1513 1514 1516 1518 1519 1520 1522 1523 1524 1524 1525 1525 1526 1527 1527 1527 1527 1528 1528 1528 1528 1528 1528 1528 1528 1528 1528 1528 1528 1529 1529 1529
1487 1488 1489 1490 1491 1492 1493 1494 1496 1497 1499 1500 1502 1504 1506 1508 1510 1512 1514 1515 1517 1519 1520 1522 1523 1524 1524 1525 1526 1527 1527 1528 1528 1528 1529 1529 1529 1529 1529 1529 1529 1529 1529 1529 1529 1529 1530 1530 1530
1487 1488 1489 1490 1490 1491 1493 1495 1494 1496 1498 1499 1501 1503 1505 1507 1509 1511 1513 1515 1516 1518 1520 1521 1523 1524 1525 1526 1527 1527 1528 1528 1529 1529 1530 1530 1530 1530 1530 1530 1530 1530 1531 1531 1531 1531 1531 1531 1531
1486 1489 1494 1489 1488 1490 1495 1500 1493 1494 1496 1497 1499 1501 1503 1505 1507 1509 1511 1513 1515 1517 1519 1520 1522 1523 1525 1526 1527 1527 1528 1529 1529 1530 1530 1530 1531 1531 1531 1531 1531 1532 1532 1532 1532 1532 1532 1532 1532
1489 1493 1494 1490 1486 1487 1491 1495 1491 1492 1494 1495 1497 1499 1501 1504 1506 1507 1509 1512 1514 1516 1518 1519 1521 1522 1524 1525 1526 1527 1528 1529 1530 1530 1530 1531 1531 1531 1532 1532 1532 1532 1533 1533 1533 1533 1533 1533 1533
1493 1490 1489 1489 1485 1486 1489 1490 1489 1490 1491 1492 1494 1496 1499 1501 1503 1505 1508 1510 1512 1515 1517 1518 1519 1521 1523 1524 1526 1527 1528 1529 1529 1530 1530 1531 1531 1532 1532 1532 1532 1533 1533 1533 1533 1533 1534 1534 1535
1483 1485 1488 1485 1481 1485 1487 1487 1485 1486 1488 1489 1491 1494 1496 1498 1501 1503 1506 1508 1511 1513 1515 1517 1518 1520 1522 1523 1525 1526 1527 1528 1529 1530 1530 1531 1531 1532 1532 1532 1532 1533 1533 1533 1534 1534 1535 1535 1536
1482 1486 1487 1483 1479 1482 1484 1484 1481 1482 1484 1486 1488 1491 1493 1496 1499 1502 1504 1506 1508 1511 1513 1515 1517 1518 1520 1522 1523 1525 1526 1527 1528 1529 1530 1530 1531 1532 1532 1532 1532 1533 1533 1534 1534 1535 1535 1536 1536
1483 1485 1486 1486 1482 1480 1484 1486 1480 1477 1480 1483 1486 1488 1491 1494 1497 1499 1502 1504 1506 1509 1511 1513 1515 1517 1519 1520 1522 1524 1525 1527 1528 1528 1529 1530 1531 1531 1532 1532 1532 1533 1533 1533 1534 1535 1535 1536 1536
1486 1480 1481 1484 1489 1490 1486 1497 1481 1475 1477 1479 1483 1486 1488 1491 1495 1497 1500 1502 1504 1507 1509 1511 1513 1515 1517 1519 1520 1522 1523 1525 1526 1527 1528 1529 1530 1531 1531 1532 1532 1532 1533 1533 1534 1535 1535 1536 1536
1481 1478 1480 1482 1486 1489 1483 1491 1483 1473 1477 1477 1479 1483 1487 1490 1493 1496 1498 1500 1503 1505 1507 1509 1511 1513 1515 1516 1518 1520 1522 1523 1525 1526 1527 1528 1529 1530 1530 1531 1531 1532 1532 1533 1534 1534 1535 1535 1536
1477 1479 1479 1479 1486 1497 1482 1486 1486 1474 1472 1473 1476 1481 1485 1488 1491 1494 1496 1498 1501 1503 1505 1507 1509 1511 1513 1515 1517 1518 1520 1522 1523 1524 1526 1527 1528 1529 1529 1530 1530 1531 1531 1532 1532 1533 1534 1535 1535
1478 1487 1496 1497 1499 1492 1471 1476 1481 1468 1467 1470 1474 1479 1483 1487 1490 1493 1495 1497 1499 1501 1503 1505 1508 1509 1511 1513 1515 1516 1518 1520 1521 1523 1524 1525 1526 1527 1528 1528 1529 1529 1530 1531 1531 1532 1533 1534 1534
1478 1482 1499 1507 1500 1489 1474 1477 1474 1464 1467 1471 1475 1478 1482 1486 1489 1492 1494 1495 1497 1499 1501 1503 1506 1507 1509 1511 1513 1515 1516 1518 1519 1521 1522 1523 1524 1525 1526 1527 1527 1528 1529 1529 1530 1531 1532 1532 1533
1479 1479 1477 1488 1487 1491 1481 1474 1471 1466 1470 1473 1476 1479 1482 1486 1488 1490 1493 1494 1496 1497 1500 1502 1504 1506 1507 1509 1511 1513 1514 1516 1517 1519 1520 1521 1522 1523 1524 1525 1525 1526 1527 1528 1529 1529 1530 1531 1531
1475 1477 1481 1487 1496 1497 1484 1479 1480 1473 1472 1474 1477 1480 1482 1485 1487 1490 1491 1493 1495 1497 1499 1501 1502 1504 1506 1508 1509 1511 1513 1514 1515 1517 1518 1519 1520 1521 1522 1522 1523 1524 1525 1526 1526 1527 1528 1529 1529
1476 1478 1479 1482 1482 1493 1496 1490 1471 1471 1472 1474 1476 1479 1482 1484 1486 1488 1490 1492 1494 1495 1497 1499 1501 1502 1504 1506 1507 1509 1511 1512 1513 1514 1515 1516 1517 1518 1519 1520 1521 1522 1523 1524 1524 1525 1526 1527 1527
1471 1474 1479 1491 1488 1482 1487 1489 1468 1469 1471 1474 1476 1479 1481 1484 1485 1487 1489 1491 1493 1494 1496 1497 1499 1500 1502 1504 1505 1507 1509 1510 1511 1512 1512 1514 1515 1515 1516 1517 1518 1519 1520 1521 1522 1523 1524 1525 1525